EcAMSat (43019 NORAD) Tracking and Keplerian Element Data

This shows tracking and keplerian element data for the satellite.

Feedback or suggestion? Click here.




ElementValue
Catalog43019
NameEcAMSat
Epoch Orbit19247
Epoch Day276.85551733
Epoch Year2019
RAAN155.1092
Inclination51.6394
Eccentricity0.0005025
Argument of Perigee145.2812
Mean Anonmoly214.8511
Mean Motion15.62310519
Decay Rate6.373E-05
L11 43019U 98067NG 19276.85551733 .00006373 00000-0 76574-4 0 9991
L22 43019 51.6394 155.1092 0005025 145.2812 214.8511 15.62310519192473

Live tracking and technical data element details for EcAMSat (NORAD 43019). EcAMSat can be tracked NOW for your location showing map with azimuth and elevation plus other details from your city location.

Track the satellite on the map from your city or location and see movement details for azimuth, elevation, latitude, longitude, range, height, and movement on the map or in text.







IsCatalogInMostPopularTable: catalog: 43019, numindb: 348
Update: records affected: 1



GetName: 43019 EcAMSat

Hit Count: updated at: Mon, 14 Oct 2019 01:38:17 GMT